STARLINK-2557 (48299 NORAD) Tracking and Keplerian Element Data

This shows tracking and keplerian element data for the satellite.

Feedback or suggestion? Click here.




ElementValue
Catalog48299
NameSTARLINK-2557
Epoch Orbit1511
Epoch Day210.91668981
Epoch Year2021
RAAN80.3466
Inclination53.0535
Eccentricity0.0001402
Argument of Perigee61.3321
Mean Anonmoly276.4538
Mean Motion15.07960399
Decay Rate-0.01081993
L11 48299U 21036Z 21210.91668981 -.01081993 00000-0 -75300-1 0 9997
L22 48299 53.0535 80.3466 0001402 61.3321 276.4538 15.07960399 15117

Live tracking and technical data element details for STARLINK-2557 (NORAD 48299). STARLINK-2557 can be tracked NOW for your location showing map with azimuth and elevation plus other details from your city location.

Track the satellite on the map from your city or location and see movement details for azimuth, elevation, latitude, longitude, range, height, and movement on the map or in text.







IsCatalogInMostPopularTable: catalog: 48299, numindb: 34
Update: records affected: 1



GetName: 48299 STARLINK-2557

Hit Count: updated at: Sat, 31 Jul 2021 15:26:43 GMT